LKKB Weather Reports


time (UTC)temp
C
wind
direction
speed
KPH
gust
KPH
rain 1hr
cm
rain 24hr
cm
rain mn
cm
humidity
%
barometer
mb
20260509113103 13 340 8.0 0.0 0.00 0.00 0.00 62 1020.0
20260509111851 13 10 8.0 0.0 0.00 0.00 0.00 58
20260509110103 13 20 4.8 0.0 0.00 0.00 0.00 58 1020.0
20260509103103 13 10 8.0 0.0 0.00 0.00 0.00 58 1020.0
20260509102051 13 60 11.3 0.0 0.00 0.00 0.00 58
20260509093103 13 50 8.0 0.0 0.00 0.00 0.00 58 1020.0
20260509091853 13 50 8.0 0.0 0.00 0.00 0.00 58
20260509090210 13 40 8.0 0.0 0.00 0.00 0.00 54 1020.0
20260509083102 12 0 4.8 0.0 0.00 0.00 0.00 66 1020.0
20260509081853 12 30 3.2 0.0 0.00 0.00 0.00 66
20260509080211 12 0 3.2 0.0 0.00 0.00 0.00 71 1020.0
20260509073103 12 20 9.7 0.0 0.00 0.00 0.00 76 1020.0
20260509071950 12 40 11.3 0.0 0.00 0.00 0.00 76
20260509070210 11 50 11.3 0.0 0.00 0.00 0.00 81 1020.0
20260509063102 11 30 8.0 0.0 0.00 0.00 0.00 81 1020.0
20260509061853 10 40 3.2 0.0 0.00 0.00 0.00 87
20260509060213 10 40 4.8 0.0 0.00 0.00 0.00 81 1020.0
20260509053103 8 360 4.8 0.0 0.00 0.00 0.00 87 1020.0
20260509051851 8 360 3.2 0.0 0.00 0.00 0.00 87
20260509050210 10 0 1.6 0.0 0.00 0.00 0.00 87 1020.0
20260509043103 7 320 1.6 0.0 0.00 0.00 0.00 93 1019.0
20260509042055 7 340 3.2 0.0 0.00 0.00 0.00 93
20260509040203 7 340 1.6 0.0 0.00 0.00 0.00 93 1019.0
20260509033102 7 350 3.2 0.0 0.00 0.00 0.00 100 1019.0
20260509031851 7 350 3.2 0.0 0.00 0.00 0.00 87
20260509023103 7 10 3.2 0.0 0.00 0.00 0.00 100 1019.0
20260509021851 7 10 3.2 0.0 0.00 0.00 0.00 87
20260509013102 7 10 4.8 0.0 0.00 0.00 0.00 100 1020.0
20260509011952 7 30 3.2 0.0 0.00 0.00 0.00 87
20260509003103 8 360 3.2 0.0 0.00 0.00 0.00 87 1019.0
20260509001852 8 350 8.0 0.0 0.00 0.00 0.00 81
20260509000211 8 350 4.8 0.0 0.00 0.00 0.00 87 1020.0
20260508233103 8 320 4.8 0.0 0.00 0.00 0.00 87 1020.0
20260508231851 8 350 3.2 0.0 0.00 0.00 0.00 81
20260508223103 10 330 4.8 0.0 0.00 0.00 0.00 81 1020.0
20260508222051 8 350 8.0 0.0 0.00 0.00 0.00 81
20260508220103 10 340 4.8 0.0 0.00 0.00 0.00 81 1020.0
20260508213103 10 340 4.8 0.0 0.00 0.00 0.00 81 1020.0
20260508211852 8 340 8.0 0.0 0.00 0.00 0.00 81
20260508210209 8 330 8.0 0.0 0.00 0.00 0.00 87 1020.0
20260508203103 8 330 8.0 0.0 0.00 0.00 0.00 87 1019.0
20260508201854 10 340 8.0 0.0 0.00 0.00 0.00 76
20260508200103 10 350 8.0 0.0 0.00 0.00 0.00 81 1019.0
20260508193103 10 350 8.0 0.0 0.00 0.00 0.00 81 1019.0
20260508191952 10 350 8.0 0.0 0.00 0.00 0.00 76
20260508190211 10 350 4.8 0.0 0.00 0.00 0.00 81 1019.0
20260508183102 11 350 9.7 0.0 0.00 0.00 0.00 76 1018.0
20260508181851 12 350 11.3 0.0 0.00 0.00 0.00 66
20260508180302 12 350 9.7 0.0 0.00 0.00 0.00 71 1018.0
20260508173102 12 360 9.7 0.0 0.00 0.00 0.00 66 1018.0
20260508171850 12 360 8.0 0.0 0.00 0.00 0.00 66
20260508163103 13 10 8.0 0.0 0.00 0.00 0.00 62 1018.0
20260508162052 13 350 11.3 0.0 0.00 0.00 0.00 62
20260508160212 13 360 11.3 0.0 0.00 0.00 0.00 67 1018.0
20260508153103 13 360 11.3 0.0 0.00 0.00 0.00 62 1018.0
20260508151855 13 340 11.3 0.0 0.00 0.00 0.00 58
20260508150211 15 360 11.3 0.0 0.00 0.00 0.00 54 1018.0
20260508143102 13 360 9.7 0.0 0.00 0.00 0.00 58 1018.0
20260508141853 13 330 8.0 0.0 0.00 0.00 0.00 58
20260508140212 13 330 8.0 0.0 0.00 0.00 0.00 58 1018.0
20260508133103 13 10 8.0 0.0 0.00 0.00 0.00 62 1018.0
20260508131951 13 350 11.3 0.0 0.00 0.00 0.00 62
20260508130210 13 10 9.7 0.0 0.00 0.00 0.00 62 1018.0
20260508123103 12 30 9.7 0.0 0.00 0.00 0.00 66 1018.0
20260508121851 12 360 11.3 0.0 0.00 0.00 0.00 62